Location: Unspecified
(29.9680°N, 0.0000°E)
Time: 10:53:19
(UTC+00:00)

A-11 Canister half - Pass Details

Date: 18 June 2019
Orbit: 1526 x 1683 km, 47.3° (Epoch: 18 July)

Event Time Altitude Azimuth Distance (km) Brightness Sun altitude
Rises 06:11:33 0° 258° (WSW) 4,733 10.9 13.6°
Reaches altitude 10° 06:14:55 10° 265° (W) 3,732 10.5 14.3°
Maximum altitude 06:23:39 42° 334° (NNW) 2,079 9.8 16.1°
Drops below altitude 10° 06:32:19 10° 43° (NE) 3,694 12.2 17.8°
Sets 06:35:38 0° 51° (NE) 4,681 12.8 18.5°
